| time (UTC) | temp F | wind direction | speed MPH | gust MPH | rain 1hr in | rain 24hr in | rain mn in | humidity % | barometer mb |
| 20260902194538 | 81 | 309 | 0.0 | 2.0 | 0.28 | 0.28 | 0.28 | 92 | 1015.7 |
| 20260902194041 | 81 | 72 | 0.0 | 1.0 | 0.28 | 0.28 | 0.28 | 92 | 1015.6 |
| 20260902193537 | 80 | 249 | 0.0 | 2.0 | 0.28 | 0.28 | 0.28 | 91 | 1015.8 |
| 20260902193036 | 80 | 77 | 0.0 | 2.0 | 0.28 | 0.28 | 0.28 | 90 | 1015.8 |
| 20260902192537 | 81 | 91 | 0.0 | 3.0 | 0.28 | 0.28 | 0.28 | 88 | 1015.8 |
| 20260902192034 | 82 | 300 | 0.0 | 3.0 | 0.20 | 0.20 | 0.20 | 87 | 1016.0 |
| 20260902191537 | 83 | 315 | 0.0 | 3.0 | 0.01 | 0.01 | 0.01 | 86 | 1015.9 |
| 20260902191032 | 84 | 319 | 0.0 | 2.0 | 0.01 | 0.01 | 0.01 | 86 | 1015.7 |
| 20260902190532 | 84 | 6 | 0.0 | 2.0 | 0.01 | 0.01 | 0.01 | 86 | 1015.7 |
| 20260902190037 | 84 | 4 | 0.0 | 2.0 | 0.01 | 0.01 | 0.01 | 87 | 1015.7 |
| 20260902185533 | 84 | 107 | 0.0 | 2.0 | 0.01 | 0.01 | 0.01 | 87 | 1015.9 |
| 20260902185031 | 84 | 291 | 0.0 | 2.0 | 0.01 | 0.01 | 0.01 | 87 | 1016.1 |
| 20260902184532 | 84 | 310 | 0.0 | 2.0 | 0.01 | 0.01 | 0.01 | 86 | 1016.0 |
| 20260902184032 | 85 | 155 | 0.0 | 4.0 | 0.01 | 0.01 | 0.01 | 84 | 1016.3 |
| 20260902183630 | 87 | 152 | 0.0 | 4.0 | 0.00 | 0.00 | 0.00 | 82 | 1016.2 |
| 20260902183029 | 88 | 285 | 0.0 | 6.0 | 0.00 | 0.00 | 0.00 | 81 | 1016.1 |
| 20260902182532 | 89 | 51 | 1.0 | 6.0 | 0.00 | 0.00 | 0.00 | 81 | 1016.0 |
| 20260902182027 | 88 | 154 | 0.0 | 3.0 | 0.00 | 0.00 | 0.00 | 82 | 1016.1 |
| 20260902181527 | 87 | 240 | 0.0 | 2.0 | 0.00 | 0.00 | 0.00 | 82 | 1016.2 |
| 20260902181033 | 87 | 27 | 0.0 | 2.0 | 0.00 | 0.00 | 0.00 | 83 | 1016.1 |
| 20260902180526 | 87 | 269 | 0.0 | 3.0 | 0.00 | 0.00 | 0.00 | 83 | 1016.3 |
| 20260902180026 | 86 | 304 | 0.0 | 4.0 | 0.00 | 0.00 | 0.00 | 82 | 1016.4 |
| 20260902175529 | 87 | 326 | 0.0 | 5.0 | 0.00 | 0.00 | 0.00 | 83 | 1016.4 |
| 20260902175024 | 87 | 206 | 0.0 | 5.0 | 0.00 | 0.00 | 0.00 | 83 | 1016.3 |
| 20260902174523 | 87 | 227 | 0.0 | 2.0 | 0.00 | 0.00 | 0.00 | 82 | 1016.4 |
| 20260902174023 | 87 | 323 | 0.0 | 3.0 | 0.00 | 0.00 | 0.00 | 82 | 1016.5 |
| 20260902173521 | 87 | 197 | 0.0 | 4.0 | 0.00 | 0.00 | 0.00 | 82 | 1016.5 |
| 20260902173021 | 87 | 212 | 0.0 | 4.0 | 0.00 | 0.00 | 0.00 | 81 | 1016.3 |
| 20260902172519 | 88 | 88 | 0.0 | 4.0 | 0.00 | 0.00 | 0.00 | 79 | 1016.4 |
| 20260902172024 | 89 | 337 | 0.0 | 4.0 | 0.00 | 0.00 | 0.00 | 78 | 1016.4 |
| 20260902171518 | 90 | 198 | 0.0 | 4.0 | 0.00 | 0.00 | 0.00 | 75 | 1016.3 |
| 20260902171020 | 92 | 86 | 0.0 | 4.0 | 0.00 | 0.00 | 0.00 | 75 | 1016.4 |
| 20260902170516 | 92 | 326 | 0.0 | 4.0 | 0.00 | 0.00 | 0.00 | 73 | 1016.4 |
| 20260902170117 | 93 | 86 | 0.0 | 5.0 | 0.00 | 0.00 | 0.00 | 72 | 1016.4 |
| 20260902165514 | 93 | 221 | 0.0 | 5.0 | 0.00 | 0.00 | 0.00 | 75 | 1016.5 |
| 20260902165012 | 92 | 106 | 1.0 | 7.0 | 0.00 | 0.00 | 0.00 | 76 | 1016.6 |
| 20260902164509 | 92 | 316 | 0.0 | 4.0 | 0.00 | 0.00 | 0.00 | 76 | 1016.6 |
| 20260902164008 | 90 | 315 | 0.0 | 4.0 | 0.00 | 0.00 | 0.00 | 79 | 1016.7 |
| 20260902163507 | 90 | 97 | 0.0 | 3.0 | 0.00 | 0.00 | 0.00 | 79 | 1016.7 |
| 20260902163005 | 89 | 274 | 0.0 | 3.0 | 0.00 | 0.00 | 0.00 | 81 | 1016.8 |
| 20260902162504 | 87 | 174 | 0.0 | 6.0 | 0.00 | 0.00 | 0.00 | 83 | 1017.1 |
| 20260902162004 | 87 | 303 | 1.0 | 6.0 | 0.00 | 0.00 | 0.00 | 81 | 1017.0 |
| 20260902161504 | 88 | 300 | 1.0 | 6.0 | 0.00 | 0.00 | 0.00 | 80 | 1017.0 |
| 20260902161002 | 88 | 259 | 0.0 | 7.0 | 0.00 | 0.00 | 0.00 | 82 | 1017.0 |
| 20260902160502 | 88 | 213 | 0.0 | 7.0 | 0.00 | 0.00 | 0.00 | 80 | 1017.1 |
| 20260902160201 | 89 | 127 | 0.0 | 4.0 | 0.00 | 0.00 | 0.00 | 80 | 1017.1 |
| 20260902155600 | 88 | 276 | 0.0 | 3.0 | 0.00 | 0.01 | 0.00 | 82 | 1017.2 |
| 20260902155059 | 88 | 80 | 0.0 | 2.0 | 0.00 | 0.01 | 0.00 | 81 | 1017.3 |
| 20260902154559 | 89 | 321 | 0.0 | 1.0 | 0.00 | 0.01 | 0.00 | 78 | 1017.2 |
| 20260902154059 | 88 | 244 | 0.0 | 3.0 | 0.00 | 0.01 | 0.00 | 80 | 1017.3 |
| 20260902153557 | 89 | 300 | 0.0 | 4.0 | 0.00 | 0.01 | 0.00 | 78 | 1017.4 |
| 20260902153056 | 90 | 170 | 0.0 | 4.0 | 0.00 | 0.01 | 0.00 | 78 | 1017.5 |
| 20260902152554 | 89 | 79 | 0.0 | 3.0 | 0.00 | 0.01 | 0.00 | 79 | 1017.4 |
| 20260902152053 | 89 | 129 | 0.0 | 3.0 | 0.00 | 0.01 | 0.00 | 78 | 1017.3 |
| 20260902151558 | 89 | 289 | 0.0 | 3.0 | 0.00 | 0.01 | 0.00 | 79 | 1017.4 |
| 20260902151050 | 87 | 243 | 0.0 | 3.0 | 0.00 | 0.01 | 0.00 | 82 | 1017.5 |
| 20260902150549 | 87 | 176 | 0.0 | 2.0 | 0.00 | 0.01 | 0.00 | 80 | 1017.5 |
| 20260902150048 | 88 | 311 | 0.0 | 2.0 | 0.00 | 0.01 | 0.00 | 80 | 1017.4 |
| 20260902145546 | 88 | 305 | 0.0 | 3.0 | 0.00 | 0.01 | 0.00 | 81 | 1017.5 |
| 20260902145045 | 87 | 131 | 0.0 | 2.0 | 0.00 | 0.01 | 0.00 | 82 | 1017.5 |
| 20260902144558 | 87 | 316 | 0.0 | 3.0 | 0.00 | 0.01 | 0.00 | 81 | 1017.4 |
| 20260902144046 | 87 | 197 | 0.0 | 3.0 | 0.00 | 0.01 | 0.00 | 82 | 1017.3 |
| 20260902143543 | 87 | 122 | 0.0 | 3.0 | 0.00 | 0.01 | 0.00 | 82 | 1017.4 |
| 20260902143040 | 87 | 8 | 0.0 | 3.0 | 0.00 | 0.01 | 0.00 | 83 | 1017.3 |
| 20260902142639 | 86 | 302 | 0.0 | 3.0 | 0.00 | 0.01 | 0.00 | 84 | 1017.3 |
| 20260902142037 | 86 | 323 | 0.0 | 0.0 | 0.00 | 0.01 | 0.00 | 83 | 1017.2 |
| 20260902141539 | 86 | 275 | 0.0 | 3.0 | 0.00 | 0.01 | 0.00 | 84 | 1017.1 |
| 20260902141037 | 86 | 146 | 0.0 | 3.0 | 0.00 | 0.01 | 0.00 | 84 | 1017.1 |
| 20260902140532 | 85 | 250 | 0.0 | 2.0 | 0.00 | 0.01 | 0.00 | 86 | 1017.1 |
| 20260902140030 | 84 | 334 | 0.0 | 1.0 | 0.00 | 0.01 | 0.00 | 87 | 1017.2 |
| 20260902135528 | 83 | 304 | 0.0 | 3.0 | 0.00 | 0.01 | 0.00 | 86 | 1017.2 |
| 20260902135028 | 83 | 324 | 0.0 | 3.0 | 0.00 | 0.01 | 0.00 | 86 | 1017.2 |
| 20260902134532 | 83 | 36 | 0.0 | 3.0 | 0.00 | 0.01 | 0.00 | 87 | 1017.3 |
| 20260902134025 | 83 | 344 | 0.0 | 2.0 | 0.00 | 0.01 | 0.00 | 88 | 1017.2 |
| 20260902133524 | 82 | 1 | 0.0 | 2.0 | 0.00 | 0.01 | 0.00 | 88 | 1017.2 |
| 20260902133024 | 82 | 1 | 0.0 | 2.0 | 0.00 | 0.01 | 0.00 | 88 | 1017.1 |
| 20260902132519 | 82 | 290 | 0.0 | 2.0 | 0.00 | 0.01 | 0.00 | 89 | 1017.2 |
| 20260902132018 | 82 | 309 | 0.0 | 2.0 | 0.00 | 0.01 | 0.00 | 89 | 1017.2 |
| 20260902131516 | 82 | 164 | 0.0 | 4.0 | 0.00 | 0.01 | 0.00 | 90 | 1017.1 |
| 20260902131014 | 81 | 14 | 0.0 | 4.0 | 0.00 | 0.01 | 0.00 | 91 | 1017.1 |
| 20260902130512 | 81 | 104 | 0.0 | 3.0 | 0.00 | 0.01 | 0.00 | 92 | 1017.0 |
| 20260902130010 | 81 | 104 | 0.0 | 3.0 | 0.00 | 0.01 | 0.00 | 93 | 1017.0 |
| 20260902125509 | 80 | 321 | 0.0 | 1.0 | 0.00 | 0.01 | 0.00 | 94 | 1017.0 |
| 20260902125008 | 80 | 334 | 0.0 | 1.0 | 0.00 | 0.01 | 0.00 | 94 | 1017.0 |
| 20260902124507 | 80 | 284 | 0.0 | 2.0 | 0.00 | 0.01 | 0.00 | 94 | 1017.0 |
| 20260902124005 | 79 | 153 | 0.0 | 1.0 | 0.00 | 0.01 | 0.00 | 95 | 1017.0 |
| 20260902123503 | 79 | 160 | 0.0 | 0.0 | 0.00 | 0.01 | 0.00 | 95 | 1017.1 |
| 20260902123001 | 79 | 158 | 0.0 | 1.0 | 0.00 | 0.01 | 0.00 | 95 | 1017.0 |
| 20260902122600 | 79 | 108 | 0.0 | 1.0 | 0.00 | 0.01 | 0.00 | 95 | 1017.0 |
| 20260902122059 | 79 | 302 | 0.0 | 1.0 | 0.00 | 0.01 | 0.00 | 95 | 1016.9 |
| 20260902121557 | 79 | 302 | 0.0 | 1.0 | 0.00 | 0.01 | 0.00 | 95 | 1017.0 |
| 20260902121056 | 79 | 323 | 0.0 | 1.0 | 0.00 | 0.01 | 0.00 | 95 | 1017.0 |
| 20260902120555 | 78 | 318 | 0.0 | 1.0 | 0.00 | 0.01 | 0.00 | 95 | 1016.9 |
| 20260902120054 | 78 | 69 | 0.0 | 1.0 | 0.00 | 0.01 | 0.00 | 95 | 1016.8 |
| 20260902115554 | 78 | 322 | 0.0 | 0.0 | 0.00 | 0.01 | 0.00 | 95 | 1016.8 |
| 20260902115051 | 78 | 322 | 0.0 | 1.0 | 0.00 | 0.01 | 0.00 | 95 | 1016.8 |
| 20260902114552 | 78 | 322 | 0.0 | 1.0 | 0.00 | 0.01 | 0.00 | 95 | 1016.6 |
| 20260902114048 | 77 | 323 | 0.0 | 0.0 | 0.00 | 0.01 | 0.00 | 95 | 1016.6 |
| 20260902113549 | 77 | 323 | 0.0 | 0.0 | 0.00 | 0.01 | 0.00 | 95 | 1016.6 |
| 20260902113052 | 77 | 323 | 0.0 | 0.0 | 0.00 | 0.01 | 0.00 | 95 | 1016.6 |
| 20260902112547 | 77 | 323 | 0.0 | 0.0 | 0.00 | 0.01 | 0.00 | 95 | 1016.6 |
| 20260902112046 | 77 | 322 | 0.0 | 0.0 | 0.00 | 0.01 | 0.00 | 95 | 1016.6 |
| 20260902111548 | 77 | 322 | 0.0 | 0.0 | 0.00 | 0.01 | 0.00 | 95 | 1016.6 |
| 20260902111046 | 77 | 322 | 0.0 | 0.0 | 0.00 | 0.01 | 0.00 | 95 | 1016.6 |
| 20260902110545 | 77 | 322 | 0.0 | 0.0 | 0.00 | 0.01 | 0.00 | 95 | 1016.5 |
| 20260902110044 | 77 | 322 | 0.0 | 0.0 | 0.00 | 0.01 | 0.00 | 95 | 1016.5 |
| 20260902105544 | 77 | 322 | 0.0 | 0.0 | 0.00 | 0.01 | 0.00 | 95 | 1016.4 |
| 20260902105042 | 77 | 322 | 0.0 | 0.0 | 0.00 | 0.01 | 0.00 | 95 | 1016.5 |
| 20260902104543 | 77 | 322 | 0.0 | 0.0 | 0.00 | 0.01 | 0.00 | 95 | 1016.5 |
| 20260902104040 | 77 | 322 | 0.0 | 0.0 | 0.00 | 0.01 | 0.00 | 95 | 1016.4 |
| 20260902103538 | 77 | 322 | 0.0 | 0.0 | 0.00 | 0.01 | 0.00 | 95 | 1016.4 |
| 20260902103039 | 77 | 322 | 0.0 | 0.0 | 0.00 | 0.01 | 0.00 | 95 | 1016.4 |
| 20260902102537 | 77 | 322 | 0.0 | 0.0 | 0.00 | 0.01 | 0.00 | 95 | 1016.4 |
| 20260902102036 | 77 | 322 | 0.0 | 0.0 | 0.00 | 0.01 | 0.00 | 95 | 1016.3 |
| 20260902101537 | 77 | 322 | 0.0 | 0.0 | 0.00 | 0.01 | 0.00 | 95 | 1016.3 |
| 20260902101035 | 77 | 322 | 0.0 | 0.0 | 0.00 | 0.01 | 0.00 | 95 | 1016.2 |
| 20260902100534 | 77 | 322 | 0.0 | 0.0 | 0.00 | 0.01 | 0.00 | 95 | 1016.2 |
| 20260902100134 | 77 | 322 | 0.0 | 0.0 | 0.00 | 0.01 | 0.00 | 95 | 1016.1 |
| 20260902095533 | 77 | 322 | 0.0 | 0.0 | 0.00 | 0.01 | 0.00 | 94 | 1016.0 |
| 20260902095032 | 77 | 322 | 0.0 | 0.0 | 0.00 | 0.01 | 0.00 | 94 | 1015.9 |
| 20260902094533 | 77 | 322 | 0.0 | 0.0 | 0.00 | 0.01 | 0.00 | 94 | 1015.9 |
| 20260902094031 | 77 | 322 | 0.0 | 0.0 | 0.00 | 0.01 | 0.00 | 94 | 1015.8 |
| 20260902093536 | 77 | 322 | 0.0 | 0.0 | 0.00 | 0.01 | 0.00 | 94 | 1015.7 |
| 20260902093035 | 77 | 322 | 0.0 | 0.0 | 0.00 | 0.01 | 0.00 | 94 | 1015.7 |
| 20260902092529 | 77 | 322 | 0.0 | 0.0 | 0.00 | 0.01 | 0.00 | 94 | 1015.7 |
| 20260902092029 | 77 | 322 | 0.0 | 0.0 | 0.00 | 0.01 | 0.00 | 94 | 1015.7 |
| 20260902091527 | 77 | 322 | 0.0 | 0.0 | 0.00 | 0.01 | 0.00 | 94 | 1015.7 |
| 20260902091025 | 77 | 322 | 0.0 | 0.0 | 0.00 | 0.01 | 0.00 | 94 | 1015.7 |
| 20260902090526 | 77 | 322 | 0.0 | 0.0 | 0.00 | 0.01 | 0.00 | 94 | 1015.7 |
| 20260902090024 | 77 | 322 | 0.0 | 0.0 | 0.00 | 0.01 | 0.00 | 94 | 1015.7 |
| 20260902085523 | 77 | 322 | 0.0 | 0.0 | 0.00 | 0.01 | 0.00 | 94 | 1015.6 |
| 20260902085025 | 77 | 322 | 0.0 | 0.0 | 0.00 | 0.01 | 0.00 | 94 | 1015.6 |
| 20260902084522 | 77 | 323 | 0.0 | 0.0 | 0.00 | 0.01 | 0.00 | 94 | 1015.7 |
| 20260902084024 | 77 | 323 | 0.0 | 0.0 | 0.00 | 0.01 | 0.00 | 94 | 1015.7 |
| 20260902083520 | 77 | 323 | 0.0 | 0.0 | 0.00 | 0.01 | 0.00 | 94 | 1015.8 |
| 20260902083018 | 77 | 323 | 0.0 | 0.0 | 0.00 | 0.01 | 0.00 | 94 | 1015.8 |
| 20260902082522 | 77 | 323 | 0.0 | 0.0 | 0.00 | 0.01 | 0.00 | 94 | 1015.8 |
| 20260902082020 | 77 | 323 | 0.0 | 0.0 | 0.00 | 0.01 | 0.00 | 94 | 1015.9 |
| 20260902081517 | 77 | 323 | 0.0 | 0.0 | 0.00 | 0.01 | 0.00 | 94 | 1015.9 |
| 20260902081017 | 77 | 323 | 0.0 | 0.0 | 0.00 | 0.01 | 0.00 | 94 | 1016.0 |
| 20260902080516 | 77 | 323 | 0.0 | 0.0 | 0.00 | 0.01 | 0.00 | 94 | 1015.8 |
| 20260902080016 | 78 | 323 | 0.0 | 0.0 | 0.00 | 0.01 | 0.00 | 94 | 1015.9 |
| 20260902075516 | 77 | 323 | 0.0 | 0.0 | 0.00 | 0.01 | 0.00 | 94 | 1015.9 |
| 20260902075014 | 77 | 323 | 0.0 | 0.0 | 0.00 | 0.01 | 0.00 | 94 | 1015.9 |
| 20260902074514 | 77 | 323 | 0.0 | 0.0 | 0.00 | 0.01 | 0.00 | 94 | 1015.8 |
| 20260902074014 | 77 | 323 | 0.0 | 0.0 | 0.00 | 0.01 | 0.00 | 94 | 1015.9 |
| 20260902073512 | 77 | 323 | 0.0 | 0.0 | 0.00 | 0.01 | 0.00 | 94 | 1015.8 |
| 20260902073011 | 77 | 323 | 0.0 | 0.0 | 0.00 | 0.01 | 0.00 | 94 | 1015.8 |
| 20260902072510 | 77 | 323 | 0.0 | 0.0 | 0.00 | 0.01 | 0.00 | 94 | 1015.9 |
| 20260902072013 | 78 | 323 | 0.0 | 0.0 | 0.00 | 0.01 | 0.00 | 94 | 1016.0 |
| 20260902071509 | 78 | 323 | 0.0 | 0.0 | 0.00 | 0.01 | 0.00 | 94 | 1016.0 |
| 20260902071009 | 78 | 323 | 0.0 | 0.0 | 0.00 | 0.01 | 0.00 | 94 | 1015.9 |
| 20260902070509 | 78 | 323 | 0.0 | 0.0 | 0.00 | 0.01 | 0.00 | 94 | 1015.9 |
| 20260902070009 | 78 | 323 | 0.0 | 0.0 | 0.00 | 0.01 | 0.00 | 94 | 1015.9 |
| 20260902065512 | 78 | 323 | 0.0 | 0.0 | 0.00 | 0.01 | 0.00 | 94 | 1015.8 |
| 20260902065009 | 78 | 323 | 0.0 | 0.0 | 0.00 | 0.01 | 0.00 | 94 | 1015.8 |
| 20260902064506 | 78 | 323 | 0.0 | 0.0 | 0.00 | 0.01 | 0.00 | 94 | 1015.9 |
| 20260902064006 | 78 | 323 | 0.0 | 0.0 | 0.00 | 0.01 | 0.00 | 94 | 1015.8 |
| 20260902063508 | 78 | 323 | 0.0 | 0.0 | 0.00 | 0.01 | 0.00 | 94 | 1015.7 |
| 20260902063004 | 78 | 323 | 0.0 | 0.0 | 0.00 | 0.01 | 0.00 | 94 | 1015.8 |
| 20260902062505 | 78 | 323 | 0.0 | 0.0 | 0.00 | 0.01 | 0.00 | 94 | 1015.8 |
| 20260902062003 | 78 | 323 | 0.0 | 0.0 | 0.00 | 0.01 | 0.00 | 94 | 1015.8 |
| 20260902061502 | 78 | 323 | 0.0 | 0.0 | 0.00 | 0.01 | 0.00 | 94 | 1015.7 |
| 20260902061001 | 78 | 323 | 0.0 | 0.0 | 0.00 | 0.01 | 0.00 | 94 | 1015.7 |
| 20260902060600 | 78 | 323 | 0.0 | 0.0 | 0.00 | 0.01 | 0.00 | 94 | 1015.7 |
| 20260902060112 | 78 | 323 | 0.0 | 0.0 | 0.00 | 0.01 | 0.00 | 93 | 1015.7 |
| 20260902055600 | 78 | 323 | 0.0 | 0.0 | 0.00 | 0.01 | 0.00 | 93 | 1015.8 |
| 20260902055058 | 78 | 323 | 0.0 | 0.0 | 0.00 | 0.01 | 0.00 | 93 | 1015.8 |
| 20260902054558 | 78 | 323 | 0.0 | 0.0 | 0.00 | 0.01 | 0.00 | 93 | 1015.8 |
| 20260902054057 | 78 | 323 | 0.0 | 0.0 | 0.00 | 0.01 | 0.00 | 93 | 1015.9 |
| 20260902053556 | 78 | 323 | 0.0 | 0.0 | 0.00 | 0.01 | 0.00 | 93 | 1016.0 |
| 20260902053059 | 78 | 323 | 0.0 | 0.0 | 0.00 | 0.01 | 0.00 | 93 | 1015.8 |
| 20260902052556 | 78 | 323 | 0.0 | 0.0 | 0.00 | 0.01 | 0.00 | 93 | 1015.9 |
| 20260902052052 | 78 | 323 | 0.0 | 0.0 | 0.00 | 0.01 | 0.00 | 93 | 1015.9 |
| 20260902051553 | 78 | 323 | 0.0 | 0.0 | 0.00 | 0.01 | 0.00 | 93 | 1016.0 |
| 20260902051052 | 78 | 323 | 0.0 | 0.0 | 0.00 | 0.01 | 0.00 | 93 | 1016.0 |
| 20260902050551 | 78 | 323 | 0.0 | 0.0 | 0.00 | 0.01 | 0.00 | 93 | 1016.0 |
| 20260902050050 | 78 | 323 | 0.0 | 0.0 | 0.00 | 0.01 | 0.00 | 93 | 1016.0 |
| 20260902045549 | 78 | 323 | 0.0 | 0.0 | 0.00 | 0.01 | 0.00 | 93 | 1015.9 |
| 20260902045047 | 78 | 323 | 0.0 | 0.0 | 0.00 | 0.01 | 0.00 | 93 | 1016.1 |
| 20260902044547 | 78 | 323 | 0.0 | 0.0 | 0.00 | 0.01 | 0.00 | 92 | 1016.1 |
| 20260902044145 | 78 | 323 | 0.0 | 0.0 | 0.00 | 0.01 | 0.00 | 92 | 1016.1 |
| 20260902043544 | 78 | 323 | 0.0 | 0.0 | 0.00 | 0.01 | 0.00 | 92 | 1016.1 |
| 20260902043042 | 78 | 323 | 0.0 | 0.0 | 0.00 | 0.01 | 0.00 | 92 | 1016.2 |
| 20260902042542 | 78 | 323 | 0.0 | 0.0 | 0.00 | 0.01 | 0.00 | 92 | 1016.2 |
| 20260902042042 | 79 | 323 | 0.0 | 0.0 | 0.00 | 0.01 | 0.00 | 92 | 1016.2 |
| 20260902041540 | 79 | 323 | 0.0 | 0.0 | 0.00 | 0.01 | 0.00 | 92 | 1016.2 |
| 20260902041039 | 79 | 323 | 0.0 | 0.0 | 0.00 | 0.01 | 0.00 | 92 | 1016.3 |
| 20260902040538 | 79 | 323 | 0.0 | 0.0 | 0.00 | 0.01 | 0.00 | 92 | 1016.3 |
| 20260902040037 | 79 | 323 | 0.0 | 0.0 | 0.00 | 0.01 | 0.00 | 92 | 1016.3 |
| 20260902035536 | 79 | 323 | 0.0 | 0.0 | 0.00 | 0.01 | 0.01 | 92 | 1016.3 |
| 20260902035036 | 79 | 323 | 0.0 | 0.0 | 0.00 | 0.01 | 0.01 | 92 | 1016.3 |
| 20260902034544 | 79 | 323 | 0.0 | 0.0 | 0.00 | 0.01 | 0.01 | 92 | 1016.4 |
| 20260902034036 | 79 | 323 | 0.0 | 0.0 | 0.00 | 0.01 | 0.01 | 92 | 1016.4 |
| 20260902033534 | 79 | 323 | 0.0 | 0.0 | 0.00 | 0.01 | 0.01 | 91 | 1016.5 |
| 20260902033051 | 79 | 323 | 0.0 | 0.0 | 0.00 | 0.01 | 0.01 | 91 | 1016.5 |
| 20260902032532 | 79 | 323 | 0.0 | 0.0 | 0.00 | 0.01 | 0.01 | 91 | 1016.5 |
| 20260902032033 | 79 | 323 | 0.0 | 0.0 | 0.00 | 0.01 | 0.01 | 91 | 1016.5 |
| 20260902031531 | 79 | 323 | 0.0 | 0.0 | 0.00 | 0.01 | 0.01 | 91 | 1016.7 |
| 20260902031031 | 79 | 323 | 0.0 | 0.0 | 0.00 | 0.01 | 0.01 | 91 | 1016.8 |
| 20260902030530 | 79 | 323 | 0.0 | 0.0 | 0.00 | 0.01 | 0.01 | 91 | 1016.7 |
| 20260902030030 | 79 | 323 | 0.0 | 0.0 | 0.00 | 0.01 | 0.01 | 91 | 1016.9 |
| 20260902025532 | 79 | 323 | 0.0 | 0.0 | 0.00 | 0.01 | 0.01 | 91 | 1016.9 |
| 20260902025030 | 79 | 323 | 0.0 | 0.0 | 0.00 | 0.01 | 0.01 | 91 | 1016.8 |
| 20260902024527 | 79 | 323 | 0.0 | 0.0 | 0.00 | 0.01 | 0.01 | 91 | 1016.8 |
| 20260902024027 | 79 | 323 | 0.0 | 0.0 | 0.00 | 0.01 | 0.01 | 90 | 1016.8 |
| 20260902023526 | 79 | 323 | 0.0 | 0.0 | 0.00 | 0.01 | 0.01 | 90 | 1016.8 |
| 20260902023026 | 79 | 323 | 0.0 | 0.0 | 0.00 | 0.01 | 0.01 | 90 | 1016.9 |
| 20260902022524 | 79 | 323 | 0.0 | 0.0 | 0.00 | 0.01 | 0.01 | 90 | 1017.0 |
| 20260902022024 | 80 | 323 | 0.0 | 0.0 | 0.00 | 0.01 | 0.01 | 90 | 1017.0 |
| 20260902021526 | 80 | 323 | 0.0 | 0.0 | 0.00 | 0.01 | 0.01 | 90 | 1016.9 |
| 20260902021022 | 80 | 323 | 0.0 | 0.0 | 0.00 | 0.01 | 0.01 | 90 | 1016.8 |
| 20260902020521 | 80 | 323 | 0.0 | 0.0 | 0.00 | 0.01 | 0.01 | 90 | 1016.8 |
| 20260902020030 | 80 | 323 | 0.0 | 0.0 | 0.00 | 0.01 | 0.01 | 89 | 1016.9 |
| 20260902015520 | 80 | 323 | 0.0 | 0.0 | 0.00 | 0.01 | 0.01 | 89 | 1017.0 |
| 20260902015019 | 80 | 323 | 0.0 | 0.0 | 0.00 | 0.01 | 0.01 | 89 | 1016.8 |
| 20260902014522 | 80 | 323 | 0.0 | 0.0 | 0.00 | 0.01 | 0.01 | 89 | 1016.7 |
| 20260902014018 | 80 | 323 | 0.0 | 0.0 | 0.00 | 0.01 | 0.01 | 89 | 1016.7 |
| 20260902013518 | 80 | 323 | 0.0 | 0.0 | 0.00 | 0.01 | 0.01 | 89 | 1016.6 |
| 20260902013018 | 80 | 323 | 0.0 | 0.0 | 0.00 | 0.01 | 0.01 | 89 | 1016.6 |
| 20260902012517 | 80 | 323 | 0.0 | 0.0 | 0.00 | 0.01 | 0.01 | 88 | 1016.6 |
| 20260902012019 | 80 | 323 | 0.0 | 0.0 | 0.00 | 0.01 | 0.01 | 88 | 1016.6 |
| 20260902011515 | 80 | 323 | 0.0 | 0.0 | 0.00 | 0.01 | 0.01 | 88 | 1016.6 |
| 20260902011015 | 80 | 323 | 0.0 | 0.0 | 0.00 | 0.01 | 0.01 | 88 | 1016.6 |
| 20260902010513 | 80 | 323 | 0.0 | 1.0 | 0.00 | 0.01 | 0.01 | 88 | 1016.5 |
| 20260902010014 | 81 | 297 | 0.0 | 1.0 | 0.00 | 0.01 | 0.01 | 87 | 1016.5 |
| 20260902005616 | 81 | 297 | 0.0 | 0.0 | 0.00 | 0.01 | 0.01 | 87 | 1016.5 |
| 20260902005013 | 81 | 297 | 0.0 | 0.0 | 0.00 | 0.01 | 0.01 | 87 | 1016.6 |
| 20260902004518 | 81 | 297 | 0.0 | 0.0 | 0.00 | 0.01 | 0.01 | 87 | 1016.4 |
| 20260902004011 | 81 | 297 | 0.0 | 0.0 | 0.00 | 0.01 | 0.01 | 87 | 1016.5 |
| 20260902003512 | 81 | 297 | 0.0 | 0.0 | 0.00 | 0.01 | 0.01 | 86 | 1016.4 |
| 20260902003011 | 81 | 224 | 0.0 | 1.0 | 0.00 | 0.01 | 0.01 | 86 | 1016.3 |
| 20260902002510 | 81 | 224 | 0.0 | 1.0 | 0.00 | 0.01 | 0.01 | 86 | 1016.3 |
| 20260902002009 | 81 | 224 | 0.0 | 1.0 | 0.00 | 0.01 | 0.01 | 86 | 1016.2 |
| 20260902001509 | 81 | 281 | 0.0 | 1.0 | 0.00 | 0.01 | 0.01 | 86 | 1016.4 |
| 20260902001008 | 82 | 281 | 0.0 | 0.0 | 0.00 | 0.01 | 0.01 | 85 | 1016.4 |
| 20260902000509 | 82 | 281 | 0.0 | 0.0 | 0.00 | 0.01 | 0.01 | 85 | 1016.3 |
| 20260902000013 | 82 | 281 | 0.0 | 0.0 | 0.00 | 0.01 | 0.01 | 85 | 1016.3 |
| 20260901235507 | 82 | 281 | 0.0 | 1.0 | 0.00 | 0.01 | 0.01 | 85 | 1016.4 |
| 20260901235006 | 82 | 270 | 0.0 | 1.0 | 0.00 | 0.01 | 0.01 | 85 | 1016.3 |
| 20260901234506 | 82 | 243 | 0.0 | 1.0 | 0.00 | 0.01 | 0.01 | 84 | 1016.3 |
| 20260901234005 | 83 | 290 | 0.0 | 1.0 | 0.00 | 0.01 | 0.01 | 84 | 1016.4 |
| 20260901233505 | 83 | 317 | 0.0 | 1.0 | 0.00 | 0.01 | 0.01 | 84 | 1016.3 |
| 20260901233003 | 83 | 317 | 0.0 | 1.0 | 0.00 | 0.01 | 0.01 | 83 | 1016.2 |
| 20260901232503 | 83 | 318 | 0.0 | 2.0 | 0.00 | 0.01 | 0.01 | 83 | 1016.2 |
| 20260901232006 | 84 | 321 | 0.0 | 2.0 | 0.00 | 0.01 | 0.01 | 83 | 1016.3 |
| 20260901231503 | 84 | 217 | 0.0 | 2.0 | 0.00 | 0.01 | 0.01 | 82 | 1016.3 |
| 20260901231001 | 84 | 6 | 0.0 | 3.0 | 0.00 | 0.01 | 0.01 | 82 | 1016.2 |
| 20260901230501 | 84 | 271 | 0.0 | 3.0 | 0.00 | 0.01 | 0.01 | 81 | 1016.3 |
| 20260901230002 | 85 | 81 | 0.0 | 3.0 | 0.00 | 0.01 | 0.01 | 81 | 1016.3 |
| 20260901225559 | 85 | 276 | 0.0 | 2.0 | 0.00 | 0.01 | 0.01 | 80 | 1016.2 |
| 20260901225059 | 85 | 344 | 0.0 | 2.0 | 0.00 | 0.01 | 0.01 | 79 | 1016.1 |
| 20260901224600 | 85 | 233 | 0.0 | 1.0 | 0.00 | 0.01 | 0.01 | 79 | 1016.1 |
| 20260901224058 | 86 | 308 | 0.0 | 1.0 | 0.00 | 0.01 | 0.01 | 78 | 1016.0 |
| 20260901223559 | 86 | 218 | 0.0 | 1.0 | 0.00 | 0.01 | 0.01 | 78 | 1016.0 |
| 20260901223056 | 86 | 310 | 0.0 | 2.0 | 0.00 | 0.01 | 0.01 | 77 | 1016.1 |
| 20260901222555 | 87 | 317 | 0.0 | 2.0 | 0.00 | 0.01 | 0.01 | 76 | 1016.1 |
| 20260901222055 | 87 | 302 | 0.0 | 1.0 | 0.00 | 0.01 | 0.01 | 78 | 1016.1 |
| 20260901221555 | 87 | 295 | 0.0 | 2.0 | 0.00 | 0.01 | 0.01 | 78 | 1015.9 |
| 20260901221053 | 87 | 309 | 0.0 | 2.0 | 0.00 | 0.01 | 0.01 | 76 | 1016.1 |
| 20260901220654 | 88 | 226 | 0.0 | 2.0 | 0.00 | 0.01 | 0.01 | 75 | 1016.0 |
| 20260901220054 | 89 | 306 | 0.0 | 2.0 | 0.00 | 0.01 | 0.01 | 75 | 1016.0 |
| 20260901215552 | 88 | 5 | 0.0 | 4.0 | 0.00 | 0.01 | 0.01 | 77 | 1015.8 |
| 20260901215050 | 88 | 293 | 0.0 | 4.0 | 0.00 | 0.01 | 0.01 | 78 | 1016.0 |
| 20260901214553 | 88 | 27 | 0.0 | 4.0 | 0.00 | 0.01 | 0.01 | 78 | 1016.1 |
| 20260901214050 | 89 | 70 | 0.0 | 4.0 | 0.00 | 0.01 | 0.01 | 77 | 1016.1 |
| 20260901213553 | 90 | 330 | 1.0 | 4.0 | 0.00 | 0.01 | 0.01 | 75 | 1016.0 |
| 20260901213049 | 90 | 252 | 0.0 | 2.0 | 0.00 | 0.01 | 0.01 | 77 | 1016.0 |
| 20260901212547 | 89 | 157 | 0.0 | 2.0 | 0.00 | 0.01 | 0.01 | 77 | 1016.1 |
| 20260901212049 | 88 | 316 | 0.0 | 3.0 | 0.00 | 0.01 | 0.01 | 77 | 1016.0 |
| 20260901211546 | 88 | 92 | 0.0 | 3.0 | 0.00 | 0.01 | 0.01 | 77 | 1016.0 |
| 20260901211045 | 89 | 323 | 0.0 | 3.0 | 0.00 | 0.01 | 0.01 | 76 | 1015.9 |
| 20260901210545 | 89 | 328 | 0.0 | 2.0 | 0.00 | 0.01 | 0.01 | 75 | 1016.0 |
| 20260901210046 | 90 | 323 | 0.0 | 3.0 | 0.00 | 0.01 | 0.01 | 75 | 1015.9 |
| 20260901205544 | 90 | 290 | 0.0 | 3.0 | 0.00 | 0.01 | 0.01 | 74 | 1016.1 |
| 20260901205043 | 90 | 267 | 0.0 | 3.0 | 0.00 | 0.01 | 0.01 | 73 | 1016.1 |
| 20260901204543 | 91 | 311 | 0.0 | 3.0 | 0.00 | 0.01 | 0.01 | 74 | 1016.0 |
| 20260901204043 | 91 | 96 | 0.0 | 2.0 | 0.00 | 0.01 | 0.01 | 75 | 1016.1 |
| 20260901203541 | 90 | 292 | 0.0 | 2.0 | 0.00 | 0.01 | 0.01 | 74 | 1016.2 |
| 20260901203043 | 89 | 329 | 0.0 | 3.0 | 0.00 | 0.01 | 0.01 | 76 | 1016.2 |
| 20260901202543 | 88 | 151 | 0.0 | 3.0 | 0.00 | 0.01 | 0.01 | 76 | 1016.3 |
| 20260901202043 | 88 | 247 | 0.0 | 4.0 | 0.00 | 0.01 | 0.01 | 77 | 1016.4 |
| 20260901201538 | 88 | 248 | 0.0 | 6.0 | 0.00 | 0.01 | 0.01 | 77 | 1016.5 |
| 20260901201039 | 88 | 99 | 1.0 | 4.0 | 0.00 | 0.01 | 0.01 | 76 | 1016.6 |
| 20260901200538 | 88 | 300 | 0.0 | 4.0 | 0.00 | 0.01 | 0.01 | 79 | 1016.5 |
| 20260901200057 | 88 | 153 | 0.0 | 4.0 | 0.00 | 0.01 | 0.01 | 77 | 1016.6 |
| 20260901195536 | 88 | 90 | 0.0 | 3.0 | 0.00 | 0.01 | 0.01 | 76 | 1016.6 |
| 20260901195035 | 88 | 243 | 0.0 | 3.0 | 0.00 | 0.01 | 0.01 | 78 | 1016.6 |